Regional Weather Roundup
Issued by NWS

Home | Current Version | Previous Version | Text Only | Print | Product List | Glossary On
Versions: 1 2 3 4 5 6 7 8 9 10 11 12 13 14 15 16 17 18 19 20 21 22 23 24 25 26 27 28 29 30 31 32 33 34 35 36 37 38 39 40 41 42 43 44 45 46 47 48 49 50
000
ASUS43 KTOP 171608
RWRKS

WEATHER ROUNDUP FOR KANSAS
NATIONAL WEATHER SERVICE GOODLAND KS
1000 AM CST TUE JAN 17 2017

NOTE:  "FAIR" INDICATES FEW OR NO CLOUDS BELOW 12,000 FEET WITH NO
SIGNIFICANT WEATHER AND/OR OBSTRUCTIONS TO VISIBILITY.

KSZ001>006-013>018-027>032-041>047-171700-
NORTHWEST KANSAS

CITY           SKY/WX    TMP DP  RH WIND       PRES   REMARKS
GOODLAND       SUNNY     29  22  75 W6        30.10S
HAYS           CLOUDY    34  28  79 NW8       30.14R
HILL CITY      SUNNY     32  26  78 W5        30.13S
RUSSELL        CLOUDY    33  28  81 NW10      30.13R WCI  25
$$

KSZ061>065-074>080-084>089-171700-
SOUTHWEST KANSAS

CITY           SKY/WX    TMP DP  RH WIND       PRES   REMARKS
DODGE CITY     PTSUNNY   35  30  82 W7        30.15R
ELKHART          N/A     34  28  79 W6          N/A
GARDEN CITY    PTSUNNY   35  32  88 W5        30.14R
GREAT BEND     CLOUDY    34  30  85 NW6       30.15R
LIBERAL        SUNNY     39  34  81 NW10      30.16R WCI  32
PRATT          SUNNY     35  29  79 NW10      30.15R WCI  27
$$

KSZ066>073-081>083-090>101-171700-
SOUTHEAST KANSAS

CITY           SKY/WX    TMP DP  RH WIND       PRES   REMARKS
CHANUTE        CLOUDY    38  34  85 NW9       30.14R
COFFEYVILLE    CLOUDY    38  34  85 W9        30.16R
HUTCHINSON     SUNNY     37  30  75 NW9       30.15R
MEDICINE LODGE   N/A     37  31  78 NW3       30.17R
NEWTON         SUNNY     38  32  79 NW14      30.14R WCI  30
PARSONS        CLOUDY    38  34  85 W6        30.16R
WICHITA INTL   MOSUNNY   38  31  76 NW10      30.16R WCI  31
WICHITA JABRA  SUNNY     37  32  82 NW12      30.15R WCI  29
WINFIELD       SUNNY     40  33  76 W7        30.17R
$$

KSZ007>012-019>026-033>040-048>060-102>105-171700-
NORTHEAST KANSAS

CITY           SKY/WX    TMP DP  RH WIND       PRES   REMARKS
CONCORDIA      SUNNY     30  25  81 NW7       30.12S
EMPORIA        CLOUDY    36  32  85 W12       30.12R WCI  28
LAWRENCE       CLOUDY    35  34  96 W13       30.12R FOG     WCI  26
MANHATTAN      CLOUDY    36  29  75 W8        30.14R
MARYSVILLE     SUNNY     32  27  80 NW7       30.12S
OLATHE IND     FOG       35  34  96 W9        30.11R VSB 1
OLATHE EXE     CLOUDY    34  34 100 W8        30.10R FOG
SALINA         PTSUNNY   36  27  69 NW7       30.16R
TOPEKA BILLARD CLOUDY    36  31  82 NW12      30.12R WCI  28
TOPEKA FORBES  CLOUDY    37  32  82 NW13      30.11R WCI  29
$$




USA.gov is the U.S. government's official web portal to all federal, state and local government web resources and services.